Date,TemperatureHighF,TemperatureAvgF,TemperatureLowF,DewpointHighF,DewpointAvgF,DewpointLowF,HumidityHigh,HumidityAvg,HumidityLow,PressureMaxIn,PressureMinIn,WindSpeedMaxMPH,WindSpeedAvgMPH,GustSpeedMaxMPH,PrecipitationSumIn
2013-2-1,20,16,13,13,9,6,87,75,61,0.00,40.00,16,10,26,0.00
2013-2-2,25,20,15,23,17,8,98,90,74,0.00,40.00,11,7,19,0.00
2013-2-3,24,17,8,19,14,7,96,86,69,0.00,40.00,12,5,21,0.00
2013-2-4,26,22,19,25,21,17,100,95,85,0.00,40.00,9,4,13,0.00
2013-2-5,29,24,20,29,23,20,100,94,75,0.00,40.00,9,4,15,0.00
2013-2-6,36,28,18,29,18,13,100,68,45,0.00,40.00,9,4,17,0.00
2013-2-7,45,32,25,33,27,19,99,81,56,0.00,40.00,13,5,20,0.00
2013-2-8,33,29,22,33,27,19,100,91,79,0.00,40.00,20,8,29,0.00
2013-2-9,34,25,15,26,20,15,97,82,59,0.00,40.00,7,3,11,0.00
2013-2-10,46,35,22,43,29,22,97,80,54,0.00,40.00,15,5,22,0.00
2013-2-11,47,40,33,47,34,26,99,80,67,0.00,40.00,24,13,42,0.00
2013-2-12,37,33,30,29,27,25,84,77,68,0.00,40.00,13,7,25,0.00
2013-2-13,39,32,27,30,27,25,95,83,64,0.00,40.00,7,4,11,0.00
2013-2-14,43,36,30,40,34,27,98,89,67,0.00,40.00,20,9,29,0.00
2013-2-15,36,31,26,29,23,16,88,72,54,0.00,40.00,12,6,19,0.00
2013-2-16,28,24,18,25,18,12,90,80,65,0.00,40.00,12,5,20,0.00
2013-2-17,27,20,14,15,12,8,97,72,46,0.00,40.00,12,5,20,0.00
2013-2-18,49,35,20,37,24,11,77,65,50,0.00,40.00,17,9,26,0.00
2013-2-19,47,29,18,44,26,12,99,86,65,0.00,40.00,22,14,34,0.00
2013-2-20,24,21,18,18,15,11,92,76,62,0.00,40.00,16,9,25,0.00
2013-2-21,26,24,22,20,19,17,87,82,76,0.00,40.00,12,6,17,0.00
2013-2-22,36,30,23,36,29,20,100,97,88,0.00,40.00,14,7,24,0.00
2013-2-23,35,32,29,35,26,21,98,80,62,0.00,40.00,13,7,19,0.00
2013-2-24,38,31,25,29,26,21,88,80,65,0.00,40.00,12,6,20,0.00
2013-2-25,41,32,24,36,27,24,100,83,54,0.00,40.00,11,4,17,0.00
2013-2-26,34,32,31,33,31,28,100,95,88,0.00,40.00,17,11,29,0.00
2013-2-27,36,34,33,36,34,33,100,99,99,0.00,40.00,9,6,17,0.00
2013-2-28,39,35,32,38,33,30,100,94,78,0.00,40.00,12,6,21,0.00